Find Starlink 32384

NORAD ID: 62146 Int'l Des: 2024-224 Owner: SPXS Country: US Constellation: starlink operational
LEOCIRCULAR

当前视图

正在加载3D地球...

About Starlink 32384

Starlink 32384 (NORAD 62146) is a starlink constellation satellite (v2 mini) launched Nov 30, 2024 by SPXS of US. It operates in LEO, CIRCULAR orbit with a mass of 730.00 kg.

关于 Starlink 32384

正在加载描述...

即将过境

Passes for default location (London). Set your location on the main map for personalized predictions.

高度历史

Loading altitude history...

两行轨道根数

1 62146U 24224H 26171.37870571 .00020040 00000-0 73550-3 0 9997
2 62146 42.9994 298.2867 0001877 278.0664 81.9975 15.27591296 88187
Epoch: Jun 20, 2026 • Age: 22 hours

当前状态

高度 494.2 km
速度 7.62 km/s
星下点 -40.91°S, 172.42°E
发射日期 Nov 30, 2024
运行时间 1.5 years
类型 internet

技术详情

分类 Payload
质量 730.00 kg
干质量 700.00 kg
总质量 730.00 kg
长度 0.30 m
直径 4.10 m
跨度 29.00 m
形状 Box + pan
制造商 SPXS
平台类型 Starlink V2M
阶段状态 In Orbit
所有者/国家 SPXS/US

Most Searched